KD5HIA Weather Reports


Display with metric or nautical units.
time (UTC)temp
F
wind
direction
speed
MPH
gust
MPH
rain 1hr
in
rain 24hr
in
rain mn
in
humidity
%
barometer
mb
20260507012016 68 68 7.0 10.0 0.00 0.01 0.01 60 1013.0
20260507011016 69 68 8.0 12.0 0.00 0.01 0.01 60 1012.9
20260507010016 69 68 8.0 14.0 0.00 0.01 0.01 59 1012.7
20260507005016 70 68 9.0 14.0 0.00 0.01 0.01 58 1012.7
20260507004016 70 68 8.0 12.0 0.00 0.01 0.01 58 1012.8
20260507003016 70 68 9.0 13.0 0.00 0.01 0.01 58 1012.7
20260507002016 70 68 9.0 12.0 0.00 0.01 0.01 57 1012.6
20260507001016 70 68 11.0 14.0 0.00 0.01 0.01 56 1012.5
20260507000016 71 68 10.0 14.0 0.00 0.01 0.01 56 1012.6
20260506235016 71 68 8.0 11.0 0.00 0.01 0.01 56 1012.7
20260506234016 71 68 8.0 12.0 0.00 0.01 0.01 56 1012.6
20260506233016 71 45 4.0 8.0 0.00 0.01 0.01 57 1012.4
20260506232016 72 45 3.0 9.0 0.00 0.01 0.01 57 1012.7
20260506231016 72 68 5.0 10.0 0.00 0.01 0.01 56 1012.6
20260506230016 72 68 3.0 9.0 0.00 0.01 0.01 56 1012.5
20260506225016 72 68 4.0 12.0 0.00 0.01 0.01 56 1012.3
20260506224016 72 45 3.0 5.0 0.00 0.01 0.01 54 1012.3
20260506223016 72 68 4.0 10.0 0.00 0.01 0.01 56 1012.2
20260506222016 72 45 3.0 5.0 0.00 0.01 0.01 54 1012.3
20260506221016 72 23 2.0 6.0 0.00 0.01 0.01 55 1012.3
20260506220016 73 68 5.0 9.0 0.00 0.01 0.01 56 1012.5
20260506215016 71 68 3.0 8.0 0.00 0.01 0.01 59 1012.4
20260506214016 70 45 4.0 10.0 0.00 0.01 0.01 56 1012.4
20260506213016 70 68 5.0 13.0 0.00 0.01 0.01 57 1012.6
20260506212016 71 68 4.0 8.0 0.00 0.01 0.01 57 1012.7
20260506211016 70 68 4.0 9.0 0.00 0.01 0.01 59 1012.8
20260506210016 69 68 4.0 9.0 0.00 0.01 0.01 59 1012.5
20260506205016 69 68 4.0 10.0 0.00 0.01 0.01 61 1012.8
20260506204016 68 45 4.0 10.0 0.00 0.01 0.01 61 1012.9
20260506203016 68 45 4.0 6.0 0.00 0.01 0.01 65 1013.0
20260506202016 67 90 3.0 9.0 0.00 0.01 0.01 65 1013.4
20260506201016 66 68 6.0 11.0 0.00 0.01 0.01 67 1013.5
20260506200016 65 68 5.0 10.0 0.00 0.01 0.01 67 1013.5
20260506195016 66 90 4.0 8.0 0.00 0.01 0.01 67 1013.7
20260506194016 63 68 6.0 11.0 0.00 0.01 0.01 71 1013.8
20260506193016 63 68 6.0 11.0 0.00 0.01 0.01 71 1013.7
20260506192020 62 68 6.0 10.0 0.00 0.01 0.01 73 1013.9
20260506191020 62 45 4.0 8.0 0.00 0.01 0.01 71 1014.0
20260506190020 61 68 6.0 12.0 0.00 0.01 0.01 73 1013.9
20260506185016 61 68 6.0 9.0 0.00 0.01 0.01 75 1014.1
20260506184016 61 68 7.0 10.0 0.00 0.01 0.01 75 1014.0
20260506183016 61 68 9.0 13.0 0.00 0.01 0.01 73 1014.3
20260506182016 60 45 5.0 10.0 0.00 0.01 0.01 73 1014.3
20260506181016 60 68 10.0 13.0 0.00 0.01 0.01 74 1014.4
20260506180017 60 68 8.0 13.0 0.00 0.01 0.01 74 1014.3
20260506175016 61 68 10.0 12.0 0.00 0.01 0.01 73 1014.6
20260506174016 60 68 7.0 13.0 0.00 0.01 0.01 73 1014.6
20260506173016 60 68 7.0 13.0 0.00 0.01 0.01 73 1014.8
20260506172016 60 45 7.0 13.0 0.00 0.01 0.01 74 1014.8
20260506171017 60 68 7.0 12.0 0.00 0.01 0.01 74 1014.6
20260506170016 60 68 5.0 12.0 0.00 0.01 0.01 75 1014.5
20260506165016 59 68 5.0 10.0 0.00 0.01 0.01 76 1014.4
20260506164016 58 45 5.0 11.0 0.00 0.01 0.01 78 1014.5
20260506163016 58 45 4.0 8.0 0.00 0.01 0.01 78 1014.4
20260506162016 57 23 4.0 8.0 0.00 0.01 0.01 78 1014.1
20260506161016 57 45 4.0 7.0 0.00 0.01 0.01 78 1014.1
20260506160016 57 23 3.0 6.0 0.00 0.01 0.01 79 1014.0
20260506155016 56 45 4.0 6.0 0.00 0.01 0.01 79 1014.0
20260506154016 57 23 4.0 8.0 0.00 0.01 0.01 80 1013.9
20260506153016 57 23 3.0 6.0 0.00 0.01 0.01 80 1013.9
20260506152016 56 23 3.0 4.0 0.00 0.01 0.01 82 1013.8
20260506151016 55 23 5.0 8.0 0.00 0.01 0.01 83 1013.7
20260506150016 55 45 4.0 7.0 0.00 0.01 0.01 84 1013.2
20260506145017 55 23 5.0 9.0 0.00 0.01 0.01 85 1013.1
20260506144016 54 23 5.0 9.0 0.00 0.01 0.01 85 1013.7
20260506143016 54 23 4.0 8.0 0.00 0.01 0.01 86 1013.3
20260506142016 54 45 4.0 6.0 0.00 0.01 0.01 87 1013.1
20260506141016 53 45 4.0 7.0 0.00 0.01 0.01 88 1012.8
20260506140016 53 68 8.0 13.0 0.00 0.01 0.01 88 1012.7
20260506135016 53 45 7.0 13.0 0.00 0.01 0.01 87 1012.7
20260506134017 53 23 5.0 9.0 0.01 0.01 0.01 88 1012.9
20260506133016 53 23 4.0 8.0 0.01 0.01 0.01 87 1012.8
20260506132016 54 45 8.0 18.0 0.01 0.01 0.01 87 1012.4
20260506131016 54 45 7.0 17.0 0.01 0.01 0.01 87 1012.2
20260506130016 54 68 9.0 16.0 0.01 0.01 0.01 87 1012.2
20260506125016 54 68 13.0 18.0 0.01 0.01 0.01 85 1011.2
20260506124016 55 45 4.0 8.0 0.00 0.00 0.00 83 1013.4
20260506123016 55 68 13.0 17.0 0.00 0.00 0.00 80 1012.6
20260506122016 55 68 7.0 13.0 0.00 0.00 0.00 80 1012.6
20260506121016 56 23 4.0 6.0 0.00 0.00 0.00 79 1011.5
20260506120016 56 68 8.0 18.0 0.00 0.00 0.00 79 1010.6
20260506115016 56 23 3.0 9.0 0.00 0.00 0.00 78 1012.4
20260506114016 56 23 3.0 5.0 0.00 0.00 0.00 77 1012.5
20260506113016 56 45 7.0 13.0 0.00 0.00 0.00 77 1011.3
20260506112016 57 45 6.0 12.0 0.00 0.00 0.00 77 1010.9
20260506111016 57 45 6.0 11.0 0.00 0.00 0.00 77 1011.2
20260506110016 57 23 4.0 7.0 0.00 0.00 0.00 77 1011.1
20260506105017 57 45 4.0 7.0 0.00 0.00 0.00 77 1011.0
20260506104016 57 68 7.0 14.0 0.00 0.00 0.00 77 1010.6
20260506103016 57 68 12.0 16.0 0.00 0.00 0.00 76 1010.3
20260506102016 58 68 7.0 12.0 0.00 0.00 0.00 76 1010.7
20260506101016 58 45 5.0 11.0 0.00 0.00 0.00 75 1010.7
20260506100016 58 45 5.0 9.0 0.00 0.00 0.00 75 1010.3
20260506095016 59 45 6.0 13.0 0.00 0.00 0.00 74 1010.0
20260506094017 60 45 4.0 8.0 0.00 0.00 0.00 74 1010.2
20260506093016 60 23 4.0 8.0 0.00 0.00 0.00 74 1010.2
20260506092016 60 45 3.0 5.0 0.00 0.00 0.00 75 1009.9
20260506091016 60 23 3.0 5.0 0.00 0.00 0.00 75 1009.4
20260506090016 60 23 3.0 6.0 0.00 0.00 0.00 74 1009.7
20260506085016 61 23 4.0 6.0 0.00 0.00 0.00 73 1009.7
20260506084016 62 45 5.0 9.0 0.00 0.00 0.00 73 1009.5
20260506083017 62 23 3.0 5.0 0.00 0.00 0.00 73 1010.1
20260506082016 62 45 4.0 7.0 0.00 0.00 0.00 72 1009.8
20260506081016 63 45 4.0 7.0 0.00 0.00 0.00 72 1009.9
20260506073016 65 45 5.0 9.0 0.00 0.00 0.00 71 1009.8
20260506072016 65 68 5.0 9.0 0.00 0.00 0.00 71 1009.6
20260506071016 65 68 8.0 11.0 0.00 0.00 0.00 70 1009.9
20260506062020 68 68 6.0 11.0 0.00 0.00 0.00 65 1009.2
20260506061016 68 45 5.0 10.0 0.00 0.00 0.00 64 1008.9
20260506051016 72 23 3.0 4.0 0.00 0.00 0.00 47 1008.7
20260506045016 73 68 1.0 3.0 0.00 0.00 0.00 45 1008.5
20260506044016 72 68 4.0 6.0 0.00 0.00 0.00 46 1008.3
20260506043016 73 113 1.0 2.0 0.00 0.00 0.00 45 1008.2
20260506042016 73 135 1.0 2.0 0.00 0.00 0.00 48 1008.2
20260506041016 74 0.0 0.0 0.00 0.00 0.00 41 1008.1
20260506040016 73 0.0 2.0 0.00 0.00 0.00 47 1008.2
20260506035016 73 0.0 1.0 0.00 0.00 0.00 45 1007.9
20260506034016 76 293 1.0 2.0 0.00 0.00 0.00 37 1007.9
20260506033016 77 0.0 0.0 0.00 0.00 0.00 33 1008.0
20260506032016 77 0.0 0.0 0.00 0.00 0.00 32 1007.9
20260506031016 78 0.0 0.0 0.00 0.00 0.00 31 1007.6
20260506030016 79 0.0 0.0 0.00 0.00 0.00 30 1007.6
20260506025016 80 0.0 2.0 0.00 0.00 0.00 29 1007.8
20260506024017 79 0.0 0.0 0.00 0.00 0.00 30 1007.6
20260506023016 80 0.0 0.0 0.00 0.00 0.00 30 1007.5
20260506022016 81 0.0 0.0 0.00 0.00 0.00 29 1007.4
20260506021016 81 0.0 0.0 0.00 0.00 0.00 27 1007.4
20260506020017 82 0.0 0.0 0.00 0.00 0.00 27 1007.2
20260506015016 82 0.0 2.0 0.00 0.00 0.00 26 1007.0
20260506014017 83 0.0 2.0 0.00 0.00 0.00 25 1006.8
20260506013016 84 293 1.0 2.0 0.00 0.00 0.00 25 1006.9